Time,TemperatureF,DewpointF,PressureIn,WindDirection,WindDirectionDegrees,WindSpeedMPH,WindSpeedGustMPH,Humidity,HourlyPrecipIn,Conditions,Clouds,dailyrainin,SoftwareType,DateUTC
2013-01-23 00:02:00,24.0,11.0,-100.00,NW,311,2.0,2.0,57,-99.99,,,-99.99,,2013-01-23 07:02:00,
2013-01-23 00:12:00,24.0,12.0,-100.00,NW,319,1.0,1.0,57,-99.99,,,-99.99,,2013-01-23 07:12:00,
2013-01-23 00:22:00,24.0,12.0,-100.00,WSW,258,3.0,3.0,58,-99.99,,,-99.99,,2013-01-23 07:22:00,
2013-01-23 00:32:00,24.0,11.0,-100.00,SSW,212,2.0,2.0,57,-99.99,,,-99.99,,2013-01-23 07:32:00,
2013-01-23 00:42:00,25.0,12.0,-100.00,SW,220,3.0,3.0,56,-99.99,,,-99.99,,2013-01-23 07:42:00,
2013-01-23 00:52:00,25.0,13.0,-100.00,WSW,255,6.0,6.0,58,-99.99,,,-99.99,,2013-01-23 07:52:00,
2013-01-23 01:02:00,23.0,11.0,-100.00,WNW,292,5.0,5.0,58,-99.99,,,-99.99,,2013-01-23 08:02:00,
2013-01-23 01:12:00,24.0,12.0,-100.00,WNW,291,5.0,5.0,59,-99.99,,,-99.99,,2013-01-23 08:12:00,
2013-01-23 01:22:00,25.0,13.0,-100.00,WNW,284,5.0,5.0,58,-99.99,,,-99.99,,2013-01-23 08:22:00,
2013-01-23 01:32:00,26.0,13.0,-100.00,West,260,5.0,5.0,56,-99.99,,,-99.99,,2013-01-23 08:32:00,
2013-01-23 01:42:00,25.0,12.0,-100.00,NW,319,2.0,3.0,57,-99.99,,,-99.99,,2013-01-23 08:42:00,
2013-01-23 01:52:00,26.0,12.0,-100.00,WNW,292,2.0,3.0,55,-99.99,,,-99.99,,2013-01-23 08:52:00,
2013-01-23 02:02:00,26.0,12.0,-100.00,WNW,289,3.0,4.0,54,-99.99,,,-99.99,,2013-01-23 09:02:00,
2013-01-23 02:12:00,27.0,12.0,-100.00,WNW,284,3.0,3.0,53,-99.99,,,-99.99,,2013-01-23 09:12:00,
2013-01-23 02:22:00,27.0,12.0,-100.00,WNW,284,3.0,3.0,53,-99.99,,,-99.99,,2013-01-23 09:22:00,
2013-01-23 02:32:00,26.0,12.0,-100.00,WSW,258,4.0,4.0,54,-99.99,,,-99.99,,2013-01-23 09:32:00,
2013-01-23 02:42:00,27.0,12.0,-100.00,WSW,248,4.0,4.0,54,-99.99,,,-99.99,,2013-01-23 09:42:00,
2013-01-23 02:52:00,27.0,12.0,-100.00,West,273,1.0,2.0,52,-99.99,,,-99.99,,2013-01-23 09:52:00,
2013-01-23 03:02:00,26.0,12.0,-100.00,NW,311,2.0,2.0,54,-99.99,,,-99.99,,2013-01-23 10:02:00,
2013-01-23 03:12:00,26.0,12.0,-100.00,NW,311,2.0,2.0,54,-99.99,,,-99.99,,2013-01-23 10:12:00,
2013-01-23 03:22:00,26.0,11.0,-100.00,NW,308,4.0,4.0,51,-99.99,,,-99.99,,2013-01-23 10:22:00,
2013-01-23 03:32:00,26.0,11.0,-100.00,WNW,300,3.0,4.0,51,-99.99,,,-99.99,,2013-01-23 10:32:00,
2013-01-23 03:42:00,27.0,11.0,-100.00,WNW,299,2.0,2.0,51,-99.99,,,-99.99,,2013-01-23 10:42:00,
2013-01-23 03:52:00,27.0,11.0,-100.00,NNW,343,2.0,2.0,51,-99.99,,,-99.99,,2013-01-23 10:52:00,
2013-01-23 04:02:00,25.0,11.0,-100.00,NNW,328,2.0,2.0,54,-99.99,,,-99.99,,2013-01-23 11:02:00,
2013-01-23 04:11:00,23.0,10.0,-100.00,NW,321,4.0,4.0,57,-99.99,,,-99.99,,2013-01-23 11:11:00,
2013-01-23 04:22:00,23.0,10.0,-100.00,NW,321,4.0,4.0,57,-99.99,,,-99.99,,2013-01-23 11:22:00,
2013-01-23 04:32:00,25.0,12.0,-100.00,NW,306,4.0,4.0,56,-99.99,,,-99.99,,2013-01-23 11:32:00,
2013-01-23 04:42:00,26.0,12.0,-100.00,NW,310,3.0,3.0,54,-99.99,,,-99.99,,2013-01-23 11:42:00,
2013-01-23 04:52:00,26.0,12.0,-100.00,NW,318,2.0,2.0,54,-99.99,,,-99.99,,2013-01-23 11:52:00,
2013-01-23 05:02:00,26.0,12.0,-100.00,NNW,327,2.0,2.0,54,-99.99,,,-99.99,,2013-01-23 12:02:00,
2013-01-23 05:12:00,26.0,12.0,-100.00,NNW,327,2.0,2.0,54,-99.99,,,-99.99,,2013-01-23 12:12:00,
2013-01-23 05:22:00,26.0,12.0,-100.00,NNW,327,2.0,2.0,54,-99.99,,,-99.99,,2013-01-23 12:22:00,
2013-01-23 05:32:00,24.0,12.0,-100.00,NW,305,1.0,2.0,58,-99.99,,,-99.99,,2013-01-23 12:32:00,
2013-01-23 05:42:00,25.0,12.0,-100.00,WNW,289,3.0,3.0,56,-99.99,,,-99.99,,2013-01-23 12:42:00,
2013-01-23 05:52:00,25.0,12.0,-100.00,West,280,5.0,5.0,55,-99.99,,,-99.99,,2013-01-23 12:52:00,
2013-01-23 06:03:00,25.0,12.0,-100.00,West,280,5.0,5.0,55,-99.99,,,-99.99,,2013-01-23 13:03:00,
2013-01-23 06:11:00,27.0,12.0,-100.00,West,267,4.0,4.0,51,-99.99,,,-99.99,,2013-01-23 13:11:00,
2013-01-23 06:22:00,27.0,12.0,-100.00,West,267,4.0,4.0,51,-99.99,,,-99.99,,2013-01-23 13:22:00,
2013-01-23 06:33:00,25.0,10.0,-100.00,SW,225,1.0,2.0,54,-99.99,,,-99.99,,2013-01-23 13:33:00,
2013-01-23 06:42:00,24.0,11.0,-100.00,SW,225,1.0,2.0,56,-99.99,,,-99.99,,2013-01-23 13:42:00,
2013-01-23 06:52:00,25.0,11.0,-100.00,West,275,1.0,2.0,56,-99.99,,,-99.99,,2013-01-23 13:52:00,
2013-01-23 07:02:00,24.0,11.0,-100.00,WNW,295,4.0,6.0,56,-99.99,,,-99.99,,2013-01-23 14:02:00,
2013-01-23 07:11:00,25.0,10.0,-100.00,West,275,5.0,5.0,50,-99.99,,,-99.99,,2013-01-23 14:11:00,
2013-01-23 07:23:00,25.0,10.0,-100.00,West,275,5.0,5.0,50,-99.99,,,-99.99,,2013-01-23 14:23:00,
2013-01-23 07:33:00,23.0,9.0,-100.00,West,261,6.0,6.0,54,-99.99,,,-99.99,,2013-01-23 14:33:00,
2013-01-23 07:42:00,25.0,9.0,-100.00,WNW,297,4.0,5.0,49,-99.99,,,-99.99,,2013-01-23 14:42:00,
2013-01-23 07:52:00,25.0,10.0,-100.00,WNW,301,5.0,5.0,52,-99.99,,,-99.99,,2013-01-23 14:52:00,
2013-01-23 08:02:00,25.0,10.0,-100.00,West,264,6.0,6.0,52,-99.99,,,-99.99,,2013-01-23 15:02:00,
2013-01-23 08:12:00,25.0,10.0,-100.00,West,264,6.0,6.0,52,-99.99,,,-99.99,,2013-01-23 15:12:00,
2013-01-23 08:22:00,25.0,10.0,-100.00,WNW,301,3.0,3.0,51,-99.99,,,-99.99,,2013-01-23 15:22:00,
2013-01-23 08:33:00,25.0,10.0,-100.00,WNW,301,3.0,3.0,51,-99.99,,,-99.99,,2013-01-23 15:33:00,
2013-01-23 08:42:00,26.0,10.0,-100.00,West,266,3.0,4.0,51,-99.99,,,-99.99,,2013-01-23 15:42:00,
2013-01-23 08:52:00,26.0,10.0,-100.00,West,266,3.0,4.0,51,-99.99,,,-99.99,,2013-01-23 15:52:00,
2013-01-23 09:02:00,20.0,8.0,-100.00,South,175,2.0,3.0,58,-99.99,,,-99.99,,2013-01-23 16:02:00,
2013-01-23 09:12:00,21.0,9.0,-100.00,NNW,344,0.0,1.0,57,-99.99,,,-99.99,,2013-01-23 16:12:00,
2013-01-23 09:22:00,21.0,9.0,-100.00,NNW,344,0.0,1.0,57,-99.99,,,-99.99,,2013-01-23 16:22:00,
2013-01-23 09:32:00,26.0,10.0,-100.00,NNW,340,1.0,2.0,50,-99.99,,,-99.99,,2013-01-23 16:32:00,
2013-01-23 09:42:00,26.0,10.0,-100.00,NNW,338,2.0,2.0,50,-99.99,,,-99.99,,2013-01-23 16:42:00,
2013-01-23 09:52:00,26.0,10.0,-100.00,NNE,18,2.0,2.0,51,-99.99,,,-99.99,,2013-01-23 16:52:00,
2013-01-23 10:02:00,26.0,10.0,-100.00,NNE,25,2.0,2.0,51,-99.99,,,-99.99,,2013-01-23 17:02:00,
2013-01-23 10:12:00,26.0,10.0,-100.00,NNE,25,2.0,2.0,51,-99.99,,,-99.99,,2013-01-23 17:12:00,
2013-01-23 10:22:00,27.0,10.0,-100.00,South,172,0.0,1.0,47,-99.99,,,-99.99,,2013-01-23 17:22:00,
2013-01-23 10:33:00,28.0,10.0,-100.00,SW,232,0.0,1.0,45,-99.99,,,-99.99,,2013-01-23 17:33:00,
2013-01-23 10:42:00,28.0,10.0,-100.00,West,274,4.0,6.0,46,-99.99,,,-99.99,,2013-01-23 17:42:00,
2013-01-23 10:52:00,28.0,10.0,-100.00,West,274,4.0,6.0,46,-99.99,,,-99.99,,2013-01-23 17:52:00,
2013-01-23 11:03:00,29.0,12.0,-100.00,WSW,248,3.0,3.0,47,-99.99,,,-99.99,,2013-01-23 18:03:00,
2013-01-23 11:12:00,29.0,10.0,-100.00,SW,222,2.0,2.0,43,-99.99,,,-99.99,,2013-01-23 18:12:00,
2013-01-23 11:22:00,29.0,10.0,-100.00,SW,222,2.0,2.0,43,-99.99,,,-99.99,,2013-01-23 18:22:00,
2013-01-23 11:32:00,31.0,11.0,-100.00,SW,216,1.0,2.0,41,-99.99,,,-99.99,,2013-01-23 18:32:00,
2013-01-23 11:43:00,31.0,11.0,-100.00,SW,227,1.0,2.0,41,-99.99,,,-99.99,,2013-01-23 18:43:00,
2013-01-23 11:52:00,31.0,13.0,-100.00,SW,228,2.0,3.0,47,-99.99,,,-99.99,,2013-01-23 18:52:00,
2013-01-23 12:02:00,30.0,12.0,-100.00,SW,229,3.0,3.0,47,-99.99,,,-99.99,,2013-01-23 19:02:00,
2013-01-23 12:12:00,30.0,12.0,-100.00,SW,229,3.0,3.0,47,-99.99,,,-99.99,,2013-01-23 19:12:00,
2013-01-23 12:22:00,31.0,13.0,-100.00,SW,231,2.0,3.0,48,-99.99,,,-99.99,,2013-01-23 19:22:00,
2013-01-23 12:32:00,32.0,11.0,-100.00,South,174,1.0,1.0,40,-99.99,,,-99.99,,2013-01-23 19:32:00,
2013-01-23 12:42:00,33.0,14.0,-100.00,SW,223,1.0,1.0,45,-99.99,,,-99.99,,2013-01-23 19:42:00,
2013-01-23 12:52:00,33.0,14.0,-100.00,SW,223,1.0,1.0,45,-99.99,,,-99.99,,2013-01-23 19:52:00,
2013-01-23 13:02:00,33.0,14.0,-100.00,SW,223,1.0,1.0,45,-99.99,,,-99.99,,2013-01-23 20:02:00,
2013-01-23 13:12:00,33.0,14.0,-100.00,SW,223,1.0,1.0,45,-99.99,,,-99.99,,2013-01-23 20:12:00,
2013-01-23 13:22:00,35.0,12.0,-100.00,SSE,155,2.0,4.0,38,-99.99,,,-99.99,,2013-01-23 20:22:00,
2013-01-23 13:32:00,35.0,12.0,-100.00,SSE,157,2.0,4.0,37,-99.99,,,-99.99,,2013-01-23 20:32:00,
2013-01-23 13:42:00,34.0,13.0,-100.00,SE,145,3.0,3.0,41,-99.99,,,-99.99,,2013-01-23 20:42:00,
2013-01-23 13:53:00,35.0,12.0,-100.00,SE,140,2.0,3.0,37,-99.99,,,-99.99,,2013-01-23 20:53:00,
2013-01-23 14:02:00,36.0,13.0,-100.00,SSW,203,1.0,3.0,38,-99.99,,,-99.99,,2013-01-23 21:02:00,
2013-01-23 14:12:00,36.0,13.0,-100.00,SSW,203,1.0,3.0,38,-99.99,,,-99.99,,2013-01-23 21:12:00,
2013-01-23 14:22:00,35.0,14.0,-100.00,SE,130,2.0,2.0,42,-99.99,,,-99.99,,2013-01-23 21:22:00,
2013-01-23 14:33:00,34.0,13.0,-100.00,SSE,147,2.0,3.0,41,-99.99,,,-99.99,,2013-01-23 21:33:00,
2013-01-23 14:42:00,34.0,14.0,-100.00,SSE,164,2.0,2.0,42,-99.99,,,-99.99,,2013-01-23 21:42:00,
2013-01-23 14:52:00,33.0,15.0,-100.00,SE,142,2.0,2.0,46,-99.99,,,-99.99,,2013-01-23 21:52:00,
2013-01-23 15:02:00,33.0,13.0,-100.00,SSE,147,1.0,2.0,44,-99.99,,,-99.99,,2013-01-23 22:02:00,
2013-01-23 15:12:00,34.0,14.0,-100.00,North,0,0.0,1.0,43,-99.99,,,-99.99,,2013-01-23 22:12:00,
2013-01-23 15:22:00,34.0,14.0,-100.00,North,0,0.0,1.0,43,-99.99,,,-99.99,,2013-01-23 22:22:00,
2013-01-23 15:33:00,33.0,15.0,-100.00,SE,145,1.0,3.0,45,-99.99,,,-99.99,,2013-01-23 22:33:00,
2013-01-23 15:42:00,34.0,14.0,-100.00,SE,143,1.0,2.0,43,-99.99,,,-99.99,,2013-01-23 22:42:00,
2013-01-23 15:52:00,33.0,15.0,-100.00,SE,131,1.0,4.0,45,-99.99,,,-99.99,,2013-01-23 22:52:00,
2013-01-23 16:02:00,40.0,13.0,-100.00,North,0,0.0,0.0,32,-99.99,,,-99.99,,2013-01-23 23:02:00,
2013-01-23 16:12:00,40.0,13.0,-100.00,North,0,0.0,0.0,32,-99.99,,,-99.99,,2013-01-23 23:12:00,
2013-01-23 16:22:00,35.0,14.0,-100.00,North,10,1.0,2.0,40,-99.99,,,-99.99,,2013-01-23 23:22:00,
2013-01-23 16:33:00,32.0,15.0,-100.00,NNE,21,2.0,2.0,47,-99.99,,,-99.99,,2013-01-23 23:33:00,
2013-01-23 16:42:00,31.0,16.0,-100.00,ENE,62,4.0,4.0,53,-99.99,,,-99.99,,2013-01-23 23:42:00,
2013-01-23 16:52:00,31.0,16.0,-100.00,ENE,63,1.0,2.0,51,-99.99,,,-99.99,,2013-01-23 23:52:00,
2013-01-23 17:02:00,32.0,17.0,-100.00,North,1,1.0,2.0,52,-99.99,,,-99.99,,2013-01-24 00:02:00,
2013-01-23 17:12:00,31.0,16.0,-100.00,North,355,2.0,2.0,54,-99.99,,,-99.99,,2013-01-24 00:12:00,
2013-01-23 17:22:00,30.0,17.0,-100.00,ENE,58,2.0,2.0,56,-99.99,,,-99.99,,2013-01-24 00:22:00,
2013-01-23 17:32:00,29.0,17.0,-100.00,North,2,3.0,3.0,59,-99.99,,,-99.99,,2013-01-24 00:32:00,
2013-01-23 17:42:00,28.0,16.0,-100.00,North,9,2.0,2.0,60,-99.99,,,-99.99,,2013-01-24 00:42:00,
2013-01-23 17:52:00,27.0,16.0,-100.00,North,351,2.0,2.0,60,-99.99,,,-99.99,,2013-01-24 00:52:00,
2013-01-23 18:02:00,27.0,14.0,-100.00,North,7,1.0,1.0,57,-99.99,,,-99.99,,2013-01-24 01:02:00,
2013-01-23 18:12:00,27.0,14.0,-100.00,NNW,337,2.0,2.0,56,-99.99,,,-99.99,,2013-01-24 01:12:00,
2013-01-23 18:22:00,27.0,14.0,-100.00,NNW,337,2.0,2.0,56,-99.99,,,-99.99,,2013-01-24 01:22:00,
2013-01-23 18:32:00,28.0,11.0,-100.00,NW,326,1.0,2.0,47,-99.99,,,-99.99,,2013-01-24 01:32:00,
2013-01-23 18:42:00,28.0,10.0,-100.00,NNE,27,0.0,1.0,45,-99.99,,,-99.99,,2013-01-24 01:42:00,
2013-01-23 18:52:00,28.0,8.0,-100.00,North,0,0.0,2.0,41,-99.99,,,-99.99,,2013-01-24 01:52:00,
2013-01-23 19:02:00,28.0,8.0,-100.00,NW,307,2.0,2.0,41,-99.99,,,-99.99,,2013-01-24 02:02:00,
2013-01-23 19:12:00,28.0,8.0,-100.00,NW,312,3.0,3.0,41,-99.99,,,-99.99,,2013-01-24 02:12:00,
2013-01-23 19:22:00,28.0,8.0,-100.00,NW,312,3.0,3.0,41,-99.99,,,-99.99,,2013-01-24 02:22:00,
2013-01-23 19:32:00,29.0,12.0,-100.00,North,0,0.0,3.0,48,-99.99,,,-99.99,,2013-01-24 02:32:00,
2013-01-23 19:42:00,29.0,12.0,-100.00,North,0,0.0,3.0,48,-99.99,,,-99.99,,2013-01-24 02:42:00,
2013-01-23 19:52:00,29.0,12.0,-100.00,North,0,0.0,3.0,48,-99.99,,,-99.99,,2013-01-24 02:52:00,
2013-01-23 20:02:00,29.0,14.0,-100.00,WNW,287,1.0,2.0,51,-99.99,,,-99.99,,2013-01-24 03:02:00,
2013-01-23 20:11:00,29.0,13.0,-100.00,West,276,3.0,4.0,50,-99.99,,,-99.99,,2013-01-24 03:11:00,
2013-01-23 20:22:00,29.0,14.0,-100.00,West,278,4.0,4.0,51,-99.99,,,-99.99,,2013-01-24 03:22:00,
2013-01-23 20:32:00,29.0,15.0,-100.00,West,267,4.0,4.0,55,-99.99,,,-99.99,,2013-01-24 03:32:00,
2013-01-23 20:42:00,29.0,16.0,-100.00,NE,53,0.0,2.0,58,-99.99,,,-99.99,,2013-01-24 03:42:00,
2013-01-23 20:52:00,27.0,16.0,-100.00,WSW,251,1.0,1.0,61,-99.99,,,-99.99,,2013-01-24 03:52:00,
2013-01-23 21:02:00,27.0,16.0,-100.00,WSW,251,1.0,1.0,61,-99.99,,,-99.99,,2013-01-24 04:02:00,
2013-01-23 21:11:00,29.0,14.0,-100.00,NW,307,3.0,4.0,54,-99.99,,,-99.99,,2013-01-24 04:11:00,
2013-01-23 21:22:00,29.0,14.0,-100.00,NNE,16,2.0,2.0,54,-99.99,,,-99.99,,2013-01-24 04:22:00,
2013-01-23 21:32:00,29.0,14.0,-100.00,NNE,16,2.0,2.0,54,-99.99,,,-99.99,,2013-01-24 04:32:00,
2013-01-23 21:42:00,26.0,15.0,-100.00,North,0,0.0,1.0,63,-99.99,,,-99.99,,2013-01-24 04:42:00,
2013-01-23 21:52:00,26.0,15.0,-100.00,North,0,0.0,1.0,63,-99.99,,,-99.99,,2013-01-24 04:52:00,
2013-01-23 22:03:00,27.0,15.0,-100.00,SW,228,2.0,3.0,61,-99.99,,,-99.99,,2013-01-24 05:03:00,
2013-01-23 22:12:00,28.0,9.0,-100.00,South,187,1.0,4.0,45,-99.99,,,-99.99,,2013-01-24 05:12:00,
2013-01-23 22:22:00,28.0,9.0,-100.00,WSW,243,4.0,4.0,43,-99.99,,,-99.99,,2013-01-24 05:22:00,
2013-01-23 22:32:00,28.0,14.0,-100.00,NNW,328,4.0,6.0,55,-99.99,,,-99.99,,2013-01-24 05:32:00,
2013-01-23 22:42:00,28.0,14.0,-100.00,NNW,328,4.0,6.0,55,-99.99,,,-99.99,,2013-01-24 05:42:00,
2013-01-23 22:52:00,28.0,13.0,-100.00,NNW,348,4.0,5.0,51,-99.99,,,-99.99,,2013-01-24 05:52:00,
2013-01-23 23:02:00,25.0,13.0,-100.00,NNW,328,3.0,6.0,58,-99.99,,,-99.99,,2013-01-24 06:02:00,
2013-01-23 23:11:00,25.0,13.0,-100.00,NNW,328,3.0,6.0,58,-99.99,,,-99.99,,2013-01-24 06:11:00,
2013-01-23 23:22:00,26.0,13.0,-100.00,NNE,28,4.0,5.0,56,-99.99,,,-99.99,,2013-01-24 06:22:00,
2013-01-23 23:32:00,24.0,14.0,-100.00,SSE,165,4.0,5.0,65,-99.99,,,-99.99,,2013-01-24 06:32:00,
2013-01-23 23:42:00,24.0,14.0,-100.00,SSW,196,4.0,5.0,62,-99.99,,,-99.99,,2013-01-24 06:42:00,
2013-01-23 23:52:00,26.0,14.0,-100.00,West,270,3.0,4.0,59,-99.99,,,-99.99,,2013-01-24 06:52:00,